Torna al catalogo

RAPIDEYE 1

AttivoScienzaSSO
NORAD 33314·PAYLOAD·🇩🇪 Germany

Lanciato Aug 29, 2008 da Baikonur Cosmodrome

Loading…

Prossimi Passaggi (prossime 24 ore)

TLE

AggiornatoSource: Space-Track

Epoca: Sep 14, 2026, 12:36 UTC

1 33314U 08040C   26257.52555234  .00000805  00000-0  62782-4 0  9991
2 33314  97.4072 281.6922 0025486 232.4618 127.4293 15.03640968979089

Traccia RAPIDEYE 1 in tempo reale con AllMySat

Download on the App Store